Flag for U.S.A. Weather past 2 weeks in Waterbury, Connecticut, U.S.A.

Now
64 °F

Sunny.


Feels Like: 64 °F
Forecast: 47 / 62 °F
Wind: 5 mph from North

Location: Oxford

Current Time: Sep 18, 2014 at 8:42:49 PM

Latest Report: Sep 18, 2014 at 6:48 PM


Visibility: 10 mi

Pressure: 30.02 "Hg

Humidity: 52%

Dew point: 46 °F

Location of WaterburyLocation

Historic Weather in Waterbury — Graph

°F

Waterbury temperature yesterday

Maximum temperature yesterday: 66 °F (at 2:50 PM)
Minimum temperature yesterday: 45 °F (at 4:15 AM)
Average temperature yesterday: 52 °F

Past Weeks' High & Low Weather Summary

 TemperatureHumidityPressure
High86 °F (Sep 6, 1:50 PM)100% (Sep 12, 9:50 AM)30.38 "Hg (Sep 12, 9:50 AM)
Low45 °F (Sep 15, 5:50 AM)38% (Sep 18, 3:52 PM)29.86 "Hg (Sep 11, 3:50 PM)
Average60 °F73%30.13 "Hg
* Reported Sep 3 6:52 PM — Sep 18 6:48 PM, Waterbury, Weather by CustomWeather, © 2014

Note: Actual official high and low records may vary slightly from our data, if they occured in-between our weather recording intervals... More about our weather records

Advertising

Waterbury weather history for previous 24 hours

 ConditionsComfort  
Time TempWeatherWind HumidityBarometerVisibility
6:48 PM
Sep 18
64 °FSunny.5 mph52%30.02 "Hg10 mi
5:50 PM68 °FSunny.5 mph46%30.02 "Hg10 mi
4:50 PM70 °FPassing clouds.9 mph40%30.01 "Hg10 mi
3:52 PM70 °FScattered clouds.9 mph38%30.01 "Hg10 mi
2:52 PM70 °FScattered clouds.14 mph40%30.00 "Hg10 mi
1:52 PM70 °FScattered clouds.12 mph43%30.00 "Hg10 mi
12:52 PM70 °FScattered clouds.9 mph43%30.01 "Hg10 mi
11:52 AM66 °FPassing clouds.8 mph49%30.01 "Hg10 mi
10:50 AM66 °FSunny.10 mph49%30.02 "Hg10 mi
9:50 AM63 °FSunny.5 mph59%30.02 "Hg10 mi
8:50 AM57 °FSunny.3 mph67%30.02 "Hg10 mi
7:50 AM52 °FPassing clouds.No wind77%30.02 "Hg10 mi
6:50 AM48 °FPassing clouds.3 mph76%30.00 "Hg10 mi
5:50 AM46 °FPassing clouds.3 mph76%29.99 "Hg10 mi
5:35 AM46 °FClear.5 mph76%29.99 "Hg10 mi
5:15 AM46 °FPassing clouds.No wind76%29.99 "Hg10 mi
4:55 AM46 °FPassing clouds.3 mph82%29.98 "Hg10 mi
4:35 AM46 °FPassing clouds.No wind82%29.98 "Hg10 mi
4:15 AM46 °FPassing clouds.No wind82%29.98 "Hg10 mi
3:55 AM46 °FPassing clouds.No wind87%29.98 "Hg10 mi
3:35 AM46 °FPassing clouds.No wind82%29.98 "Hg10 mi
3:15 AM46 °FOvercast.No wind82%29.98 "Hg10 mi
2:55 AM46 °FPassing clouds.No wind82%29.98 "Hg10 mi
2:35 AM46 °FPassing clouds.No wind82%29.98 "Hg10 mi
1:55 AM45 °FClear.No wind81%29.98 "Hg10 mi
1:35 AM46 °FClear.3 mph76%29.99 "Hg10 mi
1:15 AM46 °FClear.3 mph82%29.99 "Hg10 mi
12:55 AM46 °FClear.No wind87%29.99 "Hg10 mi
12:35 AM46 °FClear.No wind82%29.99 "Hg10 mi
12:15 AM46 °FClear.No wind82%29.99 "Hg10 mi
11:55 PM
Sep 17
46 °FClear.No wind82%29.99 "Hg10 mi
11:35 PM46 °FClear.No wind82%29.99 "Hg10 mi
11:15 PM48 °FClear.No wind76%30.00 "Hg10 mi
10:55 PM48 °FClear.No wind82%30.01 "Hg10 mi
10:35 PM48 °FClear.No wind76%30.01 "Hg10 mi
10:15 PM48 °FClear.No wind82%30.01 "Hg10 mi
9:55 PM48 °FClear.No wind82%30.01 "Hg10 mi
9:35 PM48 °FClear.No wind82%30.01 "Hg10 mi
9:15 PM50 °FClear.No wind76%30.01 "Hg10 mi
8:55 PM52 °FClear.No wind72%30.01 "Hg10 mi
Weather by CustomWeather, © 2014

See weather overviewHow to use our weather pages